GW6961 Weather Reports


Display with metric or nautical units.
time (UTC)temp
F
wind
direction
speed
MPH
gust
MPH
rain 1hr
in
rain 24hr
in
rain mn
in
humidity
%
barometer
mb
20260507164213 80 280 3.0 4.0 0.00 0.00 0.00 70
20260507163914 79 316 2.0 8.0 0.00 0.00 0.00 73
20260507163617 78 239 5.0 6.0 0.00 0.00 0.00 74
20260507163321 78 236 2.0 3.0 0.00 0.00 0.00 75
20260507163009 79 214 2.0 4.0 0.00 0.00 0.00 75
20260507162720 79 175 3.0 7.0 0.00 0.00 0.00 74
20260507162411 81 245 4.0 8.0 0.00 0.00 0.00 71
20260507162125 80 263 4.0 6.0 0.00 0.00 0.00 72
20260507161810 79 163 3.0 7.0 0.00 0.00 0.00 74
20260507161511 79 187 0.0 4.0 0.00 0.00 0.00 75
20260507161212 80 212 3.0 4.0 0.00 0.00 0.00 73
20260507160911 81 151 4.0 6.0 0.00 0.00 0.00 71
20260507160617 81 125 4.0 7.0 0.00 0.00 0.00 68
20260507160313 81 39 2.0 3.0 0.00 0.00 0.00 70
20260507160020 79 215 2.0 2.0 0.00 0.00 0.00 71
20260507160008 81 224 1.0 6.0 0.00 0.00 0.00 71
20260507155417 81 198 4.0 7.0 0.00 0.00 0.00 70
20260507155120 80 55 1.0 3.0 0.00 0.00 0.00 72
20260507154812 80 190 2.0 4.0 0.00 0.00 0.00 72
20260507154517 81 96 1.0 3.0 0.00 0.00 0.00 71
20260507154218 80 252 2.0 2.0 0.00 0.00 0.00 72
20260507153911 80 112 4.0 4.0 0.00 0.00 0.00 70
20260507153615 81 281 1.0 4.0 0.00 0.00 0.00 69
20260507153320 80 178 3.0 4.0 0.00 0.00 0.00 71
20260507153014 81 108 2.0 2.0 0.00 0.00 0.00 71
20260507152720 80 64 2.0 2.0 0.00 0.00 0.00 71
20260507152412 79 32 2.0 3.0 0.00 0.00 0.00 73
20260507152116 81 189 1.0 3.0 0.00 0.00 0.00 71
20260507151813 81 148 2.0 6.0 0.00 0.00 0.00 69
20260507151512 82 105 2.0 3.0 0.00 0.00 0.00 70
20260507151216 81 113 1.0 4.0 0.00 0.00 0.00 68
20260507150920 80 198 0.0 3.0 0.00 0.00 0.00 67
20260507150610 80 319 3.0 4.0 0.00 0.00 0.00 68
20260507150320 80 202 3.0 4.0 0.00 0.00 0.00 69
20260507150014 79 24 1.0 2.0 0.00 0.00 0.00 72
20260507150003 81 155 2.0 4.0 0.00 0.00 0.00 69
20260507145413 80 275 2.0 3.0 0.00 0.00 0.00 70
20260507145118 80 215 1.0 3.0 0.00 0.00 0.00 70
20260507144812 78 191 1.0 2.0 0.00 0.00 0.00 69
20260507144516 80 274 3.0 6.0 0.00 0.00 0.00 69
20260507144218 79 344 2.0 4.0 0.00 0.00 0.00 70
20260507143912 79 320 4.0 8.0 0.00 0.00 0.00 70
20260507143616 80 54 4.0 4.0 0.00 0.00 0.00 67
20260507143320 79 328 3.0 10.0 0.00 0.00 0.00 70
20260507143011 79 42 2.0 3.0 0.00 0.00 0.00 70
20260507142718 79 317 4.0 6.0 0.00 0.00 0.00 69
20260507142411 79 1 5.0 6.0 0.00 0.00 0.00 70
20260507142115 78 107 2.0 4.0 0.00 0.00 0.00 70
20260507141813 79 355 4.0 6.0 0.00 0.00 0.00 69
20260507141518 79 300 2.0 9.0 0.00 0.00 0.00 69
20260507141221 80 72 4.0 6.0 0.00 0.00 0.00 69
20260507140921 79 62 2.0 3.0 0.00 0.00 0.00 69
20260507140618 79 244 2.0 4.0 0.00 0.00 0.00 70
20260507140321 77 41 3.0 4.0 0.00 0.00 0.00 73
20260507140013 78 277 2.0 9.0 0.00 0.00 0.00 72
20260507140002 77 275 3.0 4.0 0.00 0.00 0.00 71
20260507135414 77 21 4.0 6.0 0.00 0.00 0.00 73
20260507135118 78 154 0.0 2.0 0.00 0.00 0.00 74
20260507134812 80 326 2.0 4.0 0.00 0.00 0.00 70
20260507134517 78 311 1.0 3.0 0.00 0.00 0.00 72
20260507134220 80 255 1.0 3.0 0.00 0.00 0.00 69
20260507133918 78 264 2.0 3.0 0.00 0.00 0.00 72
20260507133618 78 30 6.0 8.0 0.00 0.00 0.00 73
20260507133313 79 49 3.0 4.0 0.00 0.00 0.00 72
20260507133018 77 123 0.0 3.0 0.00 0.00 0.00 73
20260507132721 78 265 2.0 3.0 0.00 0.00 0.00 73
20260507132416 76 285 1.0 2.0 0.00 0.00 0.00 74
20260507132120 77 311 2.0 3.0 0.00 0.00 0.00 74
20260507131814 78 298 2.0 4.0 0.00 0.00 0.00 73
20260507131519 78 87 2.0 3.0 0.00 0.00 0.00 72
20260507131213 76 29 0.0 1.0 0.00 0.00 0.00 76
20260507130917 77 130 2.0 3.0 0.00 0.00 0.00 74
20260507130621 77 35 0.0 2.0 0.00 0.00 0.00 75
20260507130315 77 49 2.0 4.0 0.00 0.00 0.00 76
20260507130019 76 9 1.0 6.0 0.00 0.00 0.00 78
20260507130008 77 67 2.0 4.0 0.00 0.00 0.00 76
20260507125409 76 68 2.0 3.0 0.00 0.00 0.00 76
20260507125118 76 271 3.0 3.0 0.00 0.00 0.00 76
20260507124820 76 336 1.0 3.0 0.00 0.00 0.00 81
20260507124514 76 95 3.0 4.0 0.00 0.00 0.00 77
20260507124218 76 44 2.0 2.0 0.00 0.00 0.00 77
20260507123910 75 58 1.0 2.0 0.00 0.00 0.00 77
20260507123614 75 50 0.0 1.0 0.00 0.00 0.00 82
20260507123315 75 34 2.0 3.0 0.00 0.00 0.00 81
20260507123021 74 30 0.0 1.0 0.00 0.00 0.00 81
20260507122714 74 55 0.0 1.0 0.00 0.00 0.00 83
20260507122418 74 0 0.0 0.0 0.00 0.00 0.00 85
20260507122113 75 52 3.0 4.0 0.00 0.00 0.00 82
20260507121818 74 56 2.0 2.0 0.00 0.00 0.00 85
20260507121511 74 40 4.0 4.0 0.00 0.00 0.00 84
20260507121215 74 51 2.0 3.0 0.00 0.00 0.00 84
20260507120917 73 116 1.0 2.0 0.00 0.00 0.00 85
20260507120611 73 340 1.0 2.0 0.00 0.00 0.00 88
20260507120316 73 38 3.0 7.0 0.00 0.00 0.00 87
20260507120016 72 68 1.0 2.0 0.00 0.00 0.00 87
20260507120005 72 73 0.0 1.0 0.00 0.00 0.00 88
20260507115410 72 20 2.0 4.0 0.00 0.00 0.00 88
20260507115114 72 218 0.0 3.0 0.00 0.00 0.00 90
20260507114819 72 58 2.0 2.0 0.00 0.00 0.00 90
20260507114512 71 51 3.0 3.0 0.00 0.00 0.00 89
20260507114217 71 39 1.0 1.0 0.00 0.00 0.00 89
20260507113910 71 106 0.0 1.0 0.00 0.00 0.00 90
20260507113614 71 127 0.0 0.0 0.00 0.00 0.00 90
20260507113319 70 101 1.0 2.0 0.00 0.00 0.00 90
20260507113011 71 116 0.0 1.0 0.00 0.00 0.00 91
20260507112717 70 235 1.0 1.0 0.00 0.00 0.00 91
20260507112411 70 109 0.0 2.0 0.00 0.00 0.00 91
20260507112116 70 153 1.0 2.0 0.00 0.00 0.00 92
20260507111820 70 175 1.0 2.0 0.00 0.00 0.00 92
20260507111514 70 94 0.0 0.0 0.00 0.00 0.00 92
20260507111218 70 94 0.0 0.0 0.00 0.00 0.00 93
20260507110912 70 95 0.0 0.0 0.00 0.00 0.00 93
20260507110617 70 94 0.0 0.0 0.00 0.00 0.00 93
20260507110319 69 94 0.0 0.0 0.00 0.00 0.00 93
20260507110014 69 94 0.0 0.0 0.00 0.00 0.00 93
20260507110002 69 93 0.0 0.0 0.00 0.00 0.00 93
20260507105413 69 93 0.0 0.0 0.00 0.00 0.00 94
20260507105118 68 224 0.0 0.0 0.00 0.00 0.00 94
20260507104811 68 225 0.0 0.0 0.00 0.00 0.00 94
20260507104516 68 224 0.0 0.0 0.00 0.00 0.00 94
20260507104218 68 101 0.0 0.0 0.00 0.00 0.00 94
20260507103920 68 101 0.0 0.0 0.00 0.00 0.00 94
20260507103618 68 100 0.0 0.0 0.00 0.00 0.00 94
20260507103402 68 128 0.0 1.0 0.00 0.00 0.00 94
20260507103012 68 95 0.0 1.0 0.00 0.00 0.00 93
20260507102721 68 193 0.0 1.0 0.00 0.00 0.00 93
20260507102420 68 107 0.0 0.0 0.00 0.00 0.00 92
20260507102113 68 127 0.0 0.0 0.00 0.00 0.00 92
20260507101817 68 247 0.0 0.0 0.00 0.00 0.00 91
20260507101511 68 194 0.0 0.0 0.00 0.00 0.00 91
20260507101216 69 194 0.0 0.0 0.00 0.00 0.00 90
20260507100911 70 31 0.0 1.0 0.00 0.00 0.00 89
20260507100613 71 344 0.0 1.0 0.00 0.00 0.00 88
20260507100318 71 192 0.0 4.0 0.00 0.00 0.00 88
20260507100011 71 61 1.0 2.0 0.00 0.00 0.00 88
20260507095417 70 236 4.0 7.0 0.00 0.00 0.00 90
20260507095110 70 149 0.0 4.0 0.00 0.00 0.00 91
20260507094813 70 179 4.0 14.0 0.00 0.00 0.00 91
20260507094517 70 289 0.0 2.0 0.00 0.00 0.00 92
20260507094211 69 254 1.0 4.0 0.00 0.00 0.00 94
20260507093916 68 168 1.0 3.0 0.00 0.00 0.00 96
20260507093610 68 249 2.0 4.0 0.00 0.00 0.00 96
20260507093314 68 256 2.0 2.0 0.00 0.00 0.00 96
20260507093017 67 213 0.0 1.0 0.00 0.00 0.00 96
20260507092715 68 117 0.0 2.0 0.00 0.00 0.00 96
20260507092417 68 115 0.0 2.0 0.00 0.00 0.00 96
20260507092121 67 186 3.0 4.0 0.00 0.00 0.00 97
20260507091814 67 176 0.0 0.0 0.00 0.00 0.00 96
20260507091517 67 162 0.0 0.0 0.00 0.00 0.00 96
20260507091211 67 163 0.0 0.0 0.00 0.00 0.00 96
20260507090915 67 201 0.0 1.0 0.00 0.00 0.00 96
20260507090618 66 195 1.0 2.0 0.00 0.00 0.00 96
20260507090310 66 197 0.0 0.0 0.00 0.00 0.00 96
20260507090014 66 196 0.0 1.0 0.00 0.00 0.00 96
20260507090004 66 199 0.0 1.0 0.00 0.00 0.00 96
20260507085415 66 241 0.0 0.0 0.00 0.00 0.00 95
20260507085120 66 199 0.0 0.0 0.00 0.00 0.00 96
20260507084809 67 199 0.0 0.0 0.00 0.00 0.00 95
20260507084518 67 199 0.0 0.0 0.00 0.00 0.00 95
20260507084220 67 200 0.0 0.0 0.00 0.00 0.00 95
20260507083914 67 185 0.0 0.0 0.00 0.00 0.00 95
20260507083619 67 165 1.0 1.0 0.00 0.00 0.00 95
20260507083313 67 94 0.0 1.0 0.00 0.00 0.00 95
20260507083015 67 225 0.0 0.0 0.00 0.00 0.00 95
20260507082718 67 224 0.0 0.0 0.00 0.00 0.00 95
20260507082411 67 224 0.0 1.0 0.00 0.00 0.00 94
20260507082121 67 224 0.0 0.0 0.00 0.00 0.00 94
20260507081833 67 225 0.0 0.0 0.00 0.00 0.00 94
20260507081515 67 225 0.0 0.0 0.00 0.00 0.00 93
20260507081214 68 256 1.0 1.0 0.00 0.00 0.00 93
20260507080913 68 220 0.0 1.0 0.00 0.00 0.00 93
20260507080618 68 81 0.0 0.0 0.00 0.00 0.00 93
20260507080313 68 99 0.0 1.0 0.00 0.00 0.00 93
20260507080015 68 308 2.0 3.0 0.00 0.00 0.00 94
20260507080005 68 225 0.0 0.0 0.00 0.00 0.00 93
20260507075411 68 225 0.0 0.0 0.00 0.00 0.00 92
20260507075116 69 212 0.0 0.0 0.00 0.00 0.00 92
20260507074809 69 212 0.0 0.0 0.00 0.00 0.00 92
20260507074514 69 177 0.0 2.0 0.00 0.00 0.00 92
20260507074219 69 201 1.0 1.0 0.00 0.00 0.00 92
20260507073912 69 253 2.0 6.0 0.00 0.00 0.00 93
20260507073615 69 217 1.0 1.0 0.00 0.00 0.00 93
20260507073320 68 255 2.0 6.0 0.00 0.00 0.00 95
20260507073013 68 139 1.0 2.0 0.00 0.00 0.00 96
20260507072718 67 174 0.0 0.0 0.00 0.00 0.00 94
20260507072412 67 245 0.0 1.0 0.00 0.00 0.00 94
20260507072118 67 155 0.0 2.0 0.00 0.00 0.00 94
20260507071813 68 268 0.0 1.0 0.00 0.00 0.00 95
20260507071519 68 72 0.0 1.0 0.00 0.00 0.00 95
20260507071212 68 94 1.0 2.0 0.00 0.00 0.00 96
20260507070911 67 262 2.0 6.0 0.00 0.00 0.00 97
20260507070616 67 82 0.0 3.0 0.00 0.00 0.00 96
20260507070318 67 86 0.0 2.0 0.00 0.00 0.00 96
20260507070013 66 167 0.0 0.0 0.00 0.00 0.00 96
20260507070001 66 125 0.0 1.0 0.00 0.00 0.00 96
20260507065416 66 86 0.0 1.0 0.00 0.00 0.00 96
20260507065116 66 162 0.0 1.0 0.00 0.00 0.00 96
20260507064810 66 209 1.0 1.0 0.00 0.00 0.00 96
20260507064515 66 199 0.0 1.0 0.00 0.00 0.00 96
20260507064211 67 198 0.0 0.0 0.00 0.00 0.00 96
20260507063915 66 198 0.0 1.0 0.00 0.00 0.00 96
20260507063610 66 160 0.0 0.0 0.00 0.00 0.00 96
20260507063316 66 154 0.0 1.0 0.00 0.00 0.00 96
20260507063010 66 238 0.0 0.0 0.00 0.00 0.00 96
20260507062714 66 215 0.0 0.0 0.00 0.00 0.00 96
20260507062417 66 146 0.0 0.0 0.00 0.00 0.00 96
20260507062111 66 144 0.0 0.0 0.00 0.00 0.00 96
20260507061812 66 59 0.0 0.0 0.00 0.00 0.00 96
20260507061514 66 244 0.0 1.0 0.00 0.00 0.00 96
20260507061218 66 147 0.0 0.0 0.00 0.00 0.00 95
20260507060911 66 147 0.0 0.0 0.00 0.00 0.00 95
20260507060616 66 158 0.0 0.0 0.00 0.00 0.00 95
20260507060315 66 238 0.0 0.0 0.00 0.00 0.00 95
20260507060014 66 323 2.0 3.0 0.00 0.00 0.00 96
20260507060003 67 55 0.0 0.0 0.00 0.00 0.00 96
20260507055419 67 37 0.0 2.0 0.00 0.00 0.00 96
20260507055114 67 266 0.0 2.0 0.00 0.00 0.00 97
20260507054817 67 206 0.0 2.0 0.00 0.00 0.00 97
20260507054511 67 252 1.0 3.0 0.00 0.00 0.00 97
20260507054215 66 282 1.0 1.0 0.00 0.00 0.00 96
20260507053919 66 164 0.0 3.0 0.00 0.00 0.00 97
20260507053613 66 262 1.0 2.0 0.00 0.00 0.00 96
20260507053319 66 233 0.0 0.0 0.00 0.00 0.00 96
20260507053012 66 231 0.0 0.0 0.00 0.00 0.00 96
20260507052716 65 224 0.0 0.0 0.00 0.00 0.00 96
20260507052420 65 234 0.0 0.0 0.00 0.00 0.00 96
20260507052110 65 235 0.0 0.0 0.00 0.00 0.00 96
20260507051810 65 230 0.0 0.0 0.00 0.00 0.00 96
20260507051511 65 230 0.0 0.0 0.00 0.00 0.00 96
20260507051217 65 230 0.0 0.0 0.00 0.00 0.00 96
20260507050910 66 230 0.0 0.0 0.00 0.00 0.00 96
20260507050613 66 229 0.0 0.0 0.00 0.00 0.00 96
20260507050319 66 229 0.0 0.0 0.00 0.00 0.00 96
20260507050013 65 230 0.0 0.0 0.00 0.00 0.00 96
20260507050001 65 209 0.0 0.0 0.00 0.00 0.00 96
20260507045413 66 100 0.0 0.0 0.00 0.00 0.00 96
20260507045118 66 100 0.0 0.0 0.00 0.00 0.00 96
20260507044819 66 218 0.0 0.0 0.00 0.00 0.00 96
20260507044513 66 218 0.0 0.0 0.00 0.00 0.00 96
20260507044218 66 193 0.0 0.0 0.00 0.00 0.00 96
20260507043912 66 96 0.0 0.0 0.00 0.00 0.00 96
20260507043615 66 239 0.0 0.0 0.00 0.00 0.00 96
20260507043319 66 205 0.0 0.0 0.00 0.00 0.00 96
20260507043015 66 205 0.0 0.0 0.00 0.00 0.00 96
20260507042713 66 205 0.0 0.0 0.00 0.00 0.00 96
20260507042419 66 205 0.0 0.0 0.00 0.00 0.00 96
20260507042110 66 206 0.0 0.0 0.00 0.00 0.00 96
20260507041809 66 207 0.0 0.0 0.00 0.00 0.00 96
20260507041512 66 93 0.0 0.0 0.00 0.00 0.00 96
20260507041216 66 210 0.0 0.0 0.00 0.00 0.00 96
20260507040920 66 211 0.0 0.0 0.00 0.00 0.00 96
20260507040612 66 209 0.0 0.0 0.00 0.00 0.00 95
20260507040317 66 209 0.0 0.0 0.00 0.00 0.00 95
20260507040009 66 209 0.0 0.0 0.00 0.00 0.00 95
20260507035419 66 210 0.0 0.0 0.00 0.00 0.00 95
20260507035112 66 209 0.0 0.0 0.00 0.00 0.00 95
20260507034818 67 209 0.0 0.0 0.00 0.00 0.00 95
20260507034512 67 210 0.0 0.0 0.00 0.00 0.00 95
20260507034217 67 209 0.0 0.0 0.00 0.00 0.00 95
20260507033920 67 209 0.0 0.0 0.00 0.00 0.00 95
20260507033612 67 210 0.0 0.0 0.00 0.00 0.00 95
20260507033314 67 210 0.0 0.0 0.00 0.00 0.00 95
20260507033018 67 210 0.0 0.0 0.00 0.00 0.00 95
20260507032711 67 211 0.0 0.0 0.00 0.00 0.00 95
20260507032416 67 209 0.0 0.0 0.00 0.00 0.00 95
20260507032120 67 209 0.0 0.0 0.00 0.00 0.00 95
20260507031813 67 210 0.0 0.0 0.00 0.00 0.00 94
20260507031518 67 211 0.0 0.0 0.00 0.00 0.00 94
20260507031213 67 189 0.0 0.0 0.00 0.00 0.00 94
20260507030918 67 189 0.0 0.0 0.00 0.00 0.00 94
20260507030610 67 176 0.0 0.0 0.00 0.00 0.00 94
20260507030314 68 129 0.0 0.0 0.00 0.00 0.00 94
20260507030019 68 113 0.0 0.0 0.00 0.00 0.00 94
20260507030008 67 237 0.0 0.0 0.00 0.00 0.00 95
20260507025419 67 219 0.0 0.0 0.00 0.00 0.00 94
20260507025111 67 81 0.0 0.0 0.00 0.00 0.00 94
20260507024814 68 227 0.0 0.0 0.00 0.00 0.00 94
20260507024519 67 226 0.0 0.0 0.00 0.00 0.00 94
20260507024213 67 217 0.0 1.0 0.00 0.00 0.00 94
20260507023918 67 219 1.0 1.0 0.00 0.00 0.00 94
20260507023613 67 217 0.0 0.0 0.00 0.00 0.00 94
20260507023317 67 209 2.0 2.0 0.00 0.00 0.00 94
20260507023011 67 139 0.0 1.0 0.00 0.00 0.00 94
20260507022716 67 242 0.0 1.0 0.00 0.00 0.00 94
20260507022410 67 238 1.0 2.0 0.00 0.00 0.00 94
20260507022114 67 222 0.0 0.0 0.00 0.00 0.00 94
20260507021819 67 222 0.0 0.0 0.00 0.00 0.00 94
20260507021513 67 222 0.0 0.0 0.00 0.00 0.00 94
20260507021218 67 222 0.0 0.0 0.00 0.00 0.00 94
20260507020913 67 222 0.0 0.0 0.00 0.00 0.00 94
20260507020616 67 222 0.0 0.0 0.00 0.00 0.00 94
20260507020310 67 222 0.0 0.0 0.00 0.00 0.00 94
20260507020014 68 222 0.0 0.0 0.00 0.00 0.00 94
20260507020003 68 222 0.0 0.0 0.00 0.00 0.00 94
20260507015412 68 222 0.0 0.0 0.00 0.00 0.00 94
20260507015115 68 222 0.0 0.0 0.00 0.00 0.00 93
20260507014809 68 222 0.0 0.0 0.00 0.00 0.00 93
20260507014514 68 222 0.0 0.0 0.00 0.00 0.00 93
20260507014220 68 222 0.0 0.0 0.00 0.00 0.00 93
20260507013911 68 221 0.0 0.0 0.00 0.00 0.00 93
20260507013612 68 220 0.0 0.0 0.00 0.00 0.00 93
20260507013318 68 221 0.0 0.0 0.00 0.00 0.00 93
20260507013011 68 220 0.0 0.0 0.00 0.00 0.00 93
20260507012713 68 220 0.0 0.0 0.00 0.00 0.00 93
20260507012417 68 220 0.0 0.0 0.00 0.00 0.00 93
20260507012112 68 220 0.0 0.0 0.00 0.00 0.00 93
20260507011818 68 220 0.0 0.0 0.00 0.00 0.00 93
20260507011510 68 221 0.0 0.0 0.00 0.00 0.00 93
20260507011213 68 220 0.0 0.0 0.00 0.00 0.00 93
20260507010916 68 220 0.0 0.0 0.00 0.00 0.00 92
20260507010610 68 220 0.0 0.0 0.00 0.00 0.00 92
20260507010314 69 219 0.0 0.0 0.00 0.00 0.00 92
20260507010015 69 219 0.0 0.0 0.00 0.00 0.00 92
20260507010004 69 219 0.0 0.0 0.00 0.00 0.00 92
20260507005413 69 220 0.0 0.0 0.00 0.00 0.00 92
20260507005118 69 220 0.0 0.0 0.00 0.00 0.00 92
20260507004810 69 220 0.0 0.0 0.00 0.00 0.00 92
20260507004516 69 220 0.0 0.0 0.00 0.00 0.00 92
20260507004209 69 221 0.0 0.0 0.00 0.00 0.00 92
20260507003913 69 223 0.0 0.0 0.00 0.00 0.00 92
20260507003617 69 215 0.0 0.0 0.00 0.00 0.00 92
20260507003312 69 214 0.0 0.0 0.00 0.00 0.00 91
20260507003015 70 212 0.0 0.0 0.00 0.00 0.00 91
20260507002709 70 212 0.0 0.0 0.00 0.00 0.00 91
20260507002414 70 211 0.0 0.0 0.00 0.00 0.00 91
20260507002118 70 178 0.0 0.0 0.00 0.00 0.00 91
20260507001811 70 179 0.0 0.0 0.00 0.00 0.00 91
20260507001514 70 253 0.0 2.0 0.00 0.00 0.00 91
20260507001217 70 179 0.0 0.0 0.00 0.00 0.00 91
20260507000912 70 205 0.0 1.0 0.00 0.00 0.00 90
20260507000617 70 195 0.0 1.0 0.00 0.00 0.00 90
20260507000317 70 310 0.0 0.0 0.00 0.00 0.00 90
20260507000010 70 315 1.0 1.0 0.00 0.00 0.00 90
20260506235412 70 163 0.0 0.0 0.00 0.00 0.00 89
20260506235117 70 77 0.0 3.0 0.00 0.00 0.00 89
20260506234812 71 109 0.0 1.0 0.00 0.00 0.00 88
20260506234517 71 4 0.0 0.0 0.00 0.00 0.00 88
20260506234211 71 5 0.0 0.0 0.00 0.00 0.00 87
20260506233915 71 4 0.0 1.0 0.00 0.00 0.00 87
20260506233618 71 96 0.0 1.0 0.00 0.00 0.00 86
20260506233313 71 102 0.0 1.0 0.00 0.00 0.00 86
20260506233019 72 161 0.0 0.0 0.00 0.00 0.00 86
20260506232713 72 229 0.0 2.0 0.00 0.00 0.00 86
20260506232417 72 66 1.0 3.0 0.00 0.00 0.00 86
20260506232111 72 23 1.0 1.0 0.00 0.00 0.00 86
20260506231815 72 25 0.0 1.0 0.00 0.00 0.00 85
20260506231520 72 220 2.0 2.0 0.00 0.00 0.00 85
20260506231214 72 260 0.0 2.0 0.00 0.00 0.00 84
20260506230918 73 9 1.0 3.0 0.00 0.00 0.00 83
20260506230611 73 311 1.0 2.0 0.00 0.00 0.00 83
20260506230312 73 247 2.0 3.0 0.00 0.00 0.00 82
20260506230016 73 256 1.0 3.0 0.00 0.00 0.00 82
20260506230004 73 277 1.0 2.0 0.00 0.00 0.00 82
20260506225411 74 328 1.0 2.0 0.00 0.00 0.00 82
20260506225117 74 97 1.0 3.0 0.00 0.00 0.00 81
20260506224810 74 297 3.0 6.0 0.00 0.00 0.00 80
20260506224515 74 229 2.0 6.0 0.00 0.00 0.00 80
20260506224218 74 269 1.0 3.0 0.00 0.00 0.00 79
20260506223913 74 274 2.0 7.0 0.00 0.00 0.00 79
20260506223618 75 285 4.0 4.0 0.00 0.00 0.00 79
20260506223313 75 275 3.0 6.0 0.00 0.00 0.00 79
20260506223018 75 179 4.0 6.0 0.00 0.00 0.00 78
20260506222721 75 161 2.0 4.0 0.00 0.00 0.00 78
20260506222415 75 279 4.0 7.0 0.00 0.00 0.00 78
20260506222121 75 223 4.0 8.0 0.00 0.00 0.00 78
20260506221814 75 251 2.0 4.0 0.00 0.00 0.00 78
20260506221519 76 197 6.0 10.0 0.00 0.00 0.00 78
20260506221212 76 237 2.0 7.0 0.00 0.00 0.00 79
20260506220917 76 279 4.0 9.0 0.00 0.00 0.00 79
20260506220611 76 190 2.0 8.0 0.00 0.00 0.00 78
20260506220316 76 335 6.0 7.0 0.00 0.00 0.00 78
20260506220009 76 179 4.0 7.0 0.00 0.00 0.00 77
20260506215420 76 253 5.0 7.0 0.00 0.00 0.00 77
20260506215113 76 110 6.0 9.0 0.00 0.00 0.00 77
20260506214818 76 245 4.0 7.0 0.00 0.00 0.00 77
20260506214511 76 146 6.0 9.0 0.00 0.00 0.00 77
20260506214215 76 217 4.0 7.0 0.00 0.00 0.00 76
20260506213919 76 260 5.0 8.0 0.00 0.00 0.00 76
20260506213612 77 234 7.0 9.0 0.00 0.00 0.00 76
20260506213316 77 236 3.0 4.0 0.00 0.00 0.00 77
20260506213020 77 236 3.0 6.0 0.00 0.00 0.00 77
20260506212720 77 137 2.0 7.0 0.00 0.00 0.00 78
20260506212414 77 236 5.0 8.0 0.00 0.00 0.00 77
20260506212118 77 147 1.0 6.0 0.00 0.00 0.00 75
20260506211810 77 222 2.0 4.0 0.00 0.00 0.00 77
20260506211513 77 168 4.0 8.0 0.00 0.00 0.00 77
20260506211218 77 162 3.0 8.0 0.00 0.00 0.00 77
20260506210913 77 212 4.0 7.0 0.00 0.00 0.00 75
20260506210617 78 199 4.0 7.0 0.00 0.00 0.00 75
20260506210311 78 251 4.0 4.0 0.00 0.00 0.00 76
20260506210015 78 262 2.0 7.0 0.00 0.00 0.00 75
20260506210004 78 280 2.0 6.0 0.00 0.00 0.00 75
20260506205414 78 149 2.0 4.0 0.00 0.00 0.00 74
20260506205119 78 256 2.0 9.0 0.00 0.00 0.00 74
20260506204813 78 279 4.0 6.0 0.00 0.00 0.00 74
20260506204517 79 265 6.0 7.0 0.00 0.00 0.00 73
20260506204210 78 97 1.0 2.0 0.00 0.00 0.00 74
20260506203914 79 272 3.0 7.0 0.00 0.00 0.00 72
20260506203620 79 119 1.0 7.0 0.00 0.00 0.00 71
20260506203313 79 229 2.0 8.0 0.00 0.00 0.00 72
20260506203018 79 164 3.0 3.0 0.00 0.00 0.00 71
20260506202711 79 58 2.0 4.0 0.00 0.00 0.00 72
20260506202416 79 48 2.0 6.0 0.00 0.00 0.00 71
20260506202110 79 206 1.0 4.0 0.00 0.00 0.00 71
20260506201815 80 264 3.0 6.0 0.00 0.00 0.00 71
20260506201520 80 202 4.0 7.0 0.00 0.00 0.00 70
20260506201214 80 253 1.0 4.0 0.00 0.00 0.00 71
20260506200919 81 217 4.0 4.0 0.00 0.00 0.00 70
20260506200613 81 82 0.0 4.0 0.00 0.00 0.00 69
20260506200319 79 325 0.0 2.0 0.00 0.00 0.00 70
20260506200012 79 117 2.0 4.0 0.00 0.00 0.00 68
20260506200001 79 225 2.0 3.0 0.00 0.00 0.00 66
20260506195411 80 259 5.0 7.0 0.00 0.00 0.00 67
20260506195114 80 262 0.0 3.0 0.00 0.00 0.00 66
20260506194816 78 57 1.0 1.0 0.00 0.00 0.00 67
20260506194510 77 342 1.0 2.0 0.00 0.00 0.00 69
20260506194214 80 217 2.0 7.0 0.00 0.00 0.00 68
20260506193918 82 279 1.0 2.0 0.00 0.00 0.00 66
20260506193613 82 109 0.0 6.0 0.00 0.00 0.00 64
20260506193318 82 260 3.0 4.0 0.00 0.00 0.00 62
20260506193012 81 114 1.0 3.0 0.00 0.00 0.00 63
20260506192718 80 254 1.0 1.0 0.00 0.00 0.00 66
20260506192411 80 270 2.0 4.0 0.00 0.00 0.00 64
20260506192114 77 262 0.0 0.0 0.00 0.00 0.00 69
20260506191819 79 240 2.0 3.0 0.00 0.00 0.00 66
20260506191512 81 234 1.0 4.0 0.00 0.00 0.00 68
20260506191218 81 286 3.0 6.0 0.00 0.00 0.00 68
20260506190911 80 131 2.0 2.0 0.00 0.00 0.00 68
20260506190615 80 239 2.0 6.0 0.00 0.00 0.00 69
20260506190309 79 191 2.0 6.0 0.00 0.00 0.00 70
20260506190013 78 175 0.0 7.0 0.00 0.00 0.00 68
20260506190002 78 156 2.0 3.0 0.00 0.00 0.00 67
20260506185414 78 265 1.0 4.0 0.00 0.00 0.00 70
20260506185120 79 341 1.0 3.0 0.00 0.00 0.00 69
20260506184814 80 184 2.0 4.0 0.00 0.00 0.00 68
20260506184513 80 260 1.0 2.0 0.00 0.00 0.00 69
20260506184218 80 113 1.0 3.0 0.00 0.00 0.00 67
20260506183912 80 99 1.0 3.0 0.00 0.00 0.00 69
20260506183617 79 269 3.0 4.0 0.00 0.00 0.00 70
20260506183319 78 177 4.0 6.0 0.00 0.00 0.00 70
20260506183010 78 40 1.0 3.0 0.00 0.00 0.00 72
20260506182715 79 168 3.0 4.0 0.00 0.00 0.00 70
20260506182410 77 26 1.0 2.0 0.00 0.00 0.00 73
20260506182115 79 226 2.0 3.0 0.00 0.00 0.00 73
20260506181819 80 143 1.0 4.0 0.00 0.00 0.00 71
20260506181513 79 222 0.0 3.0 0.00 0.00 0.00 72
20260506181215 80 139 4.0 4.0 0.00 0.00 0.00 71
20260506180918 80 206 3.0 4.0 0.00 0.00 0.00 71
20260506180612 78 74 1.0 6.0 0.00 0.00 0.00 72
20260506180313 79 189 2.0 4.0 0.00 0.00 0.00 72
20260506180014 78 250 3.0 7.0 0.00 0.00 0.00 72
20260506180001 79 233 4.0 7.0 0.00 0.00 0.00 72
20260506175413 80 181 2.0 2.0 0.00 0.00 0.00 68
20260506175117 78 224 4.0 6.0 0.00 0.00 0.00 69
20260506174811 78 238 5.0 6.0 0.00 0.00 0.00 72
20260506174516 79 170 6.0 7.0 0.00 0.00 0.00 71
20260506174210 76 219 1.0 1.0 0.00 0.00 0.00 72
20260506173916 78 137 5.0 8.0 0.00 0.00 0.00 71
20260506173610 78 328 1.0 2.0 0.00 0.00 0.00 73
20260506173312 77 223 2.0 2.0 0.00 0.00 0.00 73
20260506173017 78 226 3.0 4.0 0.00 0.00 0.00 72
20260506172711 80 156 2.0 4.0 0.00 0.00 0.00 70
20260506172416 79 271 2.0 4.0 0.00 0.00 0.00 72
20260506172120 78 176 1.0 3.0 0.00 0.00 0.00 73
20260506171820 79 224 4.0 8.0 0.00 0.00 0.00 70
20260506171510 78 281 2.0 3.0 0.00 0.00 0.00 72
20260506171213 79 107 2.0 4.0 0.00 0.00 0.00 71
20260506170918 78 150 1.0 4.0 0.00 0.00 0.00 71
20260506170611 80 172 4.0 6.0 0.00 0.00 0.00 70
20260506170315 78 296 2.0 7.0 0.00 0.00 0.00 71
20260506170008 80 250 2.0 6.0 0.00 0.00 0.00 71
20260506165417 79 146 2.0 3.0 0.00 0.00 0.00 72
20260506165111 78 252 5.0 7.0 0.00 0.00 0.00 74
20260506164814 80 193 2.0 4.0 0.00 0.00 0.00 72
20260506164516 81 120 2.0 6.0 0.00 0.00 0.00 68